Flag for United Kingdom Weather past 2 weeks in London, England, United Kingdom

Now
61 °F

Scattered clouds.


Feels Like: 61 °F
Forecast: 43 / 54 °F
Wind: 16 mph from West

Location: Northolt

Current Time: Apr 25, 2015 at 2:02:56 PM

Latest Report: Apr 25, 2015 at 12:50 PM


Visibility: N/A

Pressure: 29.68 "Hg

Humidity: 59%

Dew point: 46 °F

Location of LondonLocation

Historic Weather in London — Graph

°F

London temperature yesterday

Maximum temperature yesterday: 64 °F (at 3:50 PM)
Minimum temperature yesterday: 39 °F (at 5:50 AM)
Average temperature yesterday: 54 °F

Past Weeks' High & Low Weather Summary

 TemperatureHumidityPressure
High75 °F (Apr 15, 2:50 PM)100% (Apr 14, 3:50 AM)30.57 "Hg (Apr 14, 3:50 AM)
Low36 °F (Apr 12, 5:50 AM)23% (Apr 15, 5:50 PM)29.68 "Hg (Apr 25, 4:50 AM)
Average53 °F62%30.19 "Hg
* Reported Apr 10 12:50 PM — Apr 25 12:50 PM, London, Weather by CustomWeather, © 2015

Note: Actual official high and low records may vary slightly from our data, if they occured in-between our weather recording intervals... More about our weather records

Advertising

London weather history for previous 24 hours

 ConditionsComfort  
Time TempWeatherWind HumidityBarometerVisibility
12:50 PM
Sat, Apr 25
61 °FScattered clouds.16 mph59%29.68 "HgN/A
11:50 AM61 °FBroken clouds.14 mph63%29.68 "HgN/A
10:50 AM57 °FBroken clouds.13 mph77%29.68 "HgN/A
9:50 AM55 °FPartly sunny.10 mph88%29.68 "HgN/A
8:50 AM54 °FBroken clouds.8 mph94%29.68 "HgN/A
7:58 AM52 °FLight rain. Broken clouds.8 mph100%29.68 "Hg3 mi
6:50 AM52 °FLight rain. Broken clouds.8 mph94%29.68 "Hg6 mi
5:50 AM52 °FLow clouds.7 mph94%29.68 "HgN/A
4:50 AM52 °FLow clouds.8 mph94%29.68 "HgN/A
3:50 AM52 °FLow clouds.7 mph94%29.71 "Hg4 mi
2:50 AM52 °FLow clouds.7 mph94%29.71 "Hg4 mi
1:50 AM52 °FLow clouds.7 mph94%29.74 "HgN/A
12:50 AM52 °FOvercast.8 mph94%29.74 "HgN/A
11:50 PM
Fri, Apr 24
54 °FPassing clouds.7 mph88%29.77 "HgN/A
10:50 PM55 °FPassing clouds.13 mph77%29.77 "HgN/A
9:50 PM55 °FPassing clouds.10 mph77%29.77 "HgN/A
8:50 PM57 °FPartly sunny.12 mph67%29.77 "HgN/A
7:50 PM59 °FPartly sunny.9 mph63%29.77 "HgN/A
6:50 PM61 °FPartly sunny.12 mph59%29.77 "HgN/A
5:50 PM61 °FBroken clouds.13 mph59%29.80 "HgN/A
4:50 PM63 °FScattered clouds.14 mph52%29.80 "HgN/A
3:50 PM64 °FBroken clouds.13 mph52%29.80 "HgN/A
2:50 PM61 °FBroken clouds.13 mph55%29.83 "HgN/A
Weather by CustomWeather, © 2015

See weather overviewHow to use our weather pages